Monticello, KY

6:19 AM EDT on May 27, 2017 (GMT -0400)
Wayne County

Weather History for KEKQ - January, 2012

Change the Weather History Date:

Sunday, January 29, 2012

  Actual Average Record
Temperature  
Mean Temperature 32 °F -  
Max Temperature 48 °F 46 °F 71 °F (1975)
Min Temperature 17 °F 25 °F -3 °F (1977)
Degree Days  
Heating Degree Days 32    
Moisture  
Dew Point 19 °F    
Average Humidity 71    
Maximum Humidity 92    
Minimum Humidity 30    
Precipitation  
Precipitation 0.00 in - - ()
Sea Level Pressure  
Sea Level Pressure 30.38 in    
Wind  
Wind Speed 3 mph (SW)    
Max Wind Speed 18 mph    
Max Gust Speed -    
Visibility 10 miles    
Events      
Averages and records for this station are not official NWS values.
T = Trace of Precipitation, MM = Missing Value Source: NWS Daily Summary

Daily Weather History Graph

Daily Weather History Graph

Search for Another Location

Airport or City:

Trip Planner

Search our weather history database for the weather conditions in past years. The results will help you decide how hot, cold, wet, or windy it might be!

Date:

Astronomy

Jan. 29, 2012 Rise Set
Actual Time 6:44 AM CST 5:01 PM CST
Civil Twilight 6:16 AM CST 5:28 PM CST
Nautical Twilight 5:45 AM CST 5:59 PM CST
Astronomical Twilight 5:15 AM CST 6:30 PM CST
Moon 9:46 AM CST (1/29) 11:33 PM CST (1/29)
Length of Visible Light 11h 11m
Length of Day
10h 16m
Waxing Crescent, 37% of the Moon is Illuminated
Jan 29
Waxing Crescent
Jan 30
First Quarter
Feb 7
Full
Feb 14
Last Quarter
Feb 21
New

Hourly Weather History & Observations

Time (CST) Temp. Windchill Dew Point Humidity Pressure Visibility Wind Dir Wind Speed Gust Speed Precip Events Conditions
12:56 AM 18.1 °F - 16.2 °F 92% 30.40 in 10.0 mi Calm Calm - N/A   Clear
1:56 AM 17.1 °F - 14.0 °F 88% 30.40 in 10.0 mi Calm Calm - N/A   Clear
2:56 AM 17.1 °F - 15.1 °F 92% 30.40 in 10.0 mi Calm Calm - N/A   Clear
3:56 AM 17.1 °F - 15.1 °F 92% 30.41 in 10.0 mi Calm Calm - N/A   Clear
4:56 AM 18.1 °F - 16.2 °F 92% 30.39 in 10.0 mi Calm Calm - N/A   Clear
5:56 AM 20.1 °F - 17.1 °F 88% 30.40 in 10.0 mi Calm Calm - N/A   Clear
6:56 AM 22.1 °F - 18.1 °F 85% 30.41 in 10.0 mi Calm Calm - N/A   Clear
7:56 AM 29.1 °F - 23.0 °F 78% 30.41 in 10.0 mi Calm Calm - N/A   Clear
8:56 AM 37.9 °F 30.9 °F 21.0 °F 51% 30.40 in 10.0 mi SW 10.4 mph - N/A   Clear
10:56 AM 43.9 °F 36.5 °F 20.1 °F 39% 30.38 in 10.0 mi SSW 16.1 mph - N/A   Clear
11:56 AM 45.9 °F 38.5 °F 19.0 °F 34% 30.35 in 10.0 mi WSW 18.4 mph - N/A   Clear
12:56 PM 47.8 °F - 18.1 °F 31% 30.31 in 10.0 mi SW 17.3 mph - N/A   Clear
2:56 PM 48.9 °F - 18.1 °F 30% 30.29 in 10.0 mi SW 15.0 mph - N/A   Clear
5:56 PM 43.9 °F 40.5 °F 17.1 °F 34% 30.34 in 10.0 mi WSW 5.8 mph - N/A   Clear
6:56 PM 32.0 °F - 21.0 °F 64% 30.36 in 10.0 mi Calm Calm - N/A   Clear
7:56 PM 26.1 °F - 22.1 °F 85% 30.36 in 10.0 mi Calm Calm - N/A   Clear
8:56 PM 26.1 °F - 22.1 °F 85% 30.37 in 10.0 mi Calm Calm - N/A   Clear
9:56 PM 28.0 °F - 22.1 °F 78% 30.37 in 10.0 mi Calm Calm - N/A   Clear
10:56 PM 24.1 °F - 20.1 °F 85% 30.39 in 10.0 mi Calm Calm - N/A   Clear
11:56 PM 22.1 °F - 20.1 °F 92% 30.38 in 10.0 mi Calm Calm - N/A   Clear